GW0092 Weather Reports


time (UTC)temp
F
wind
direction
speed
knots
gust
knots
rain 1hr
in
rain 24hr
in
rain mn
in
humidity
%
barometer
mb
20260831170110 83 158 0.0 2.6 0.00 0.00 0.00 87 1019.2
20260831164604 84 146 0.9 2.6 0.00 0.00 0.00 85 1019.2
20260831163105 84 0 0.9 2.6 0.00 0.00 0.00 88 1019.6
20260831161607 84 152 0.9 2.6 0.00 0.00 0.00 86 1019.8
20260831160135 84 141 0.0 3.5 0.00 0.00 0.00 86 1019.6
20260831154628 84 158 0.9 3.5 0.00 0.00 0.00 87 1019.7
20260831153132 83 125 0.9 3.5 0.00 0.00 0.00 88 1019.8
20260831151602 83 93 0.0 1.7 0.00 0.00 0.00 89 1019.7
20260831150055 82 0 0.0 1.7 0.00 0.00 0.00 88 1019.8
20260831144607 82 127 0.0 2.6 0.00 0.00 0.00 90 1019.5
20260831143102 81 125 0.0 2.6 0.00 0.00 0.00 92 1019.7
20260831141601 80 0 0.0 0.9 0.00 0.00 0.00 94 1019.6
20260831140108 79 260 0.0 2.6 0.00 0.00 0.00 97 1019.5
20260831134609 78 300 0.9 3.5 0.00 0.00 0.00 98 1019.7
20260831133103 77 285 0.9 2.6 0.00 0.00 0.00 98 1019.8
20260831131604 77 0 0.0 0.0 0.00 0.00 0.00 99 1019.9
20260831130137 76 0 0.0 0.0 0.00 0.00 0.00 100 1019.9
20260831124604 76 0 0.0 0.9 0.00 0.00 0.00 100 1019.7
20260831123106 75 360 0.0 2.6 0.00 0.00 0.00 100 1019.5
20260831121556 75 354 0.0 0.9 0.00 0.00 0.00 100 1019.3
20260831120146 74 0 0.0 0.9 0.00 0.00 0.00 100 1019.3
20260831114603 73 0 0.0 0.0 0.00 0.00 0.00 100 1019.3
20260831113102 72 0 0.0 0.0 0.00 0.00 0.00 100 1019.3
20260831111559 72 0 0.0 0.0 0.00 0.00 0.00 100 1019.3
20260831110107 72 0 0.0 0.0 0.00 0.00 0.00 100 1019.3
20260831104600 72 0 0.0 0.0 0.00 0.00 0.00 100 1019.0
20260831103104 72 0 0.0 0.0 0.00 0.00 0.00 100 1018.8
20260831101621 72 0 0.0 0.9 0.00 0.00 0.00 100 1018.7
20260831100107 72 0 0.0 0.0 0.00 0.00 0.00 100 1018.6
20260831094609 73 0 0.0 0.0 0.00 0.00 0.00 100 1018.7
20260831093101 73 0 0.0 0.9 0.00 0.00 0.00 100 1018.7
20260831091559 72 0 0.0 0.0 0.00 0.00 0.00 100 1018.5
20260831090118 72 0 0.0 0.0 0.00 0.00 0.00 100 1018.5
20260831084558 72 0 0.0 0.0 0.00 0.00 0.00 99 1018.6
20260831083247 72 0 0.0 0.0 0.00 0.00 0.00 99 1018.4
20260831081605 73 0 0.0 0.0 0.00 0.00 0.00 99 1018.4
20260831080100 73 0 0.0 0.0 0.00 0.00 0.00 99 1018.6
20260831074557 72 0 0.0 0.0 0.00 0.00 0.00 99 1018.7
20260831073109 72 0 0.0 0.0 0.00 0.00 0.00 99 1018.9
20260831071608 72 0 0.0 0.0 0.00 0.00 0.00 99 1019.0
20260831070134 73 0 0.0 0.0 0.00 0.00 0.00 99 1019.1
20260831064604 73 0 0.0 0.0 0.00 0.00 0.00 99 1019.0
20260831063107 73 0 0.0 0.0 0.00 0.00 0.00 99 1019.1
20260831061610 73 0 0.0 0.0 0.00 0.00 0.00 99 1019.1
20260831060111 73 0 0.0 0.0 0.00 0.00 0.00 99 1019.1
20260831054554 73 0 0.0 0.0 0.00 0.00 0.00 99 1019.2
20260831053105 74 0 0.0 0.0 0.00 0.00 0.00 99 1019.1
20260831051618 74 0 0.0 0.0 0.00 0.00 0.00 98 1019.2
20260831050106 74 0 0.0 0.0 0.00 0.00 0.00 98 1019.2
20260831044604 74 0 0.0 0.9 0.00 0.00 0.00 98 1019.2
20260831043108 74 0 0.0 0.0 0.00 0.00 0.00 98 1019.2
20260831041559 74 0 0.0 0.0 0.00 0.00 0.00 98 1019.3
20260831040106 74 0 0.0 0.0 0.00 0.00 0.00 97 1019.2
20260831034556 75 0 0.0 0.0 0.00 0.00 0.00 97 1019.4
20260831033103 75 0 0.0 1.7 0.00 0.00 0.00 97 1019.7
20260831031558 75 0 0.0 0.9 0.00 0.00 0.00 97 1019.8
20260831024616 75 141 0.0 3.5 0.00 0.00 0.00 96 1019.9
20260831023055 75 0 0.0 0.0 0.00 0.00 0.00 96 1020.0
20260831021604 75 108 0.9 1.7 0.00 0.00 0.00 96 1020.1
20260831020103 75 0 0.0 0.0 0.00 0.00 0.00 96 1020.2
20260831014602 75 0 0.0 0.0 0.00 0.00 0.00 96 1020.2
20260831013056 75 0 0.0 0.9 0.00 0.00 0.00 96 1020.3
20260831011604 75 0 0.0 0.9 0.00 0.00 0.00 96 1020.3
20260831010130 75 0 0.0 0.9 0.00 0.00 0.00 96 1020.3
20260831004613 75 0 0.0 0.9 0.00 0.00 0.00 96 1020.1
20260831003110 75 0 0.0 1.7 0.00 0.00 0.00 95 1020.0
20260831001609 75 0 0.0 0.9 0.00 0.00 0.00 95 1020.0
20260831000057 75 0 0.0 0.9 0.00 0.00 0.00 94 1020.1
20260830234605 76 0 0.0 0.9 0.00 0.00 0.00 94 1020.1
20260830233104 76 0 0.0 0.9 0.00 0.00 0.00 93 1020.0
20260830231600 77 0 0.0 1.7 0.00 0.00 0.00 92 1019.8
20260830230109 77 148 0.0 1.7 0.00 0.00 0.00 91 1020.1
20260830224609 77 139 0.9 1.7 0.00 0.00 0.00 91 1020.1
20260830223104 78 127 0.9 3.5 0.00 0.00 0.00 90 1020.1
20260830221600 78 153 0.9 2.6 0.00 0.00 0.00 90 1020.2
20260830220126 79 139 0.0 2.6 0.00 0.00 0.00 89 1020.1
20260830214605 80 0 0.9 4.3 0.00 0.00 0.00 88 1019.9
20260830213103 81 110 0.9 4.3 0.00 0.00 0.00 85 1019.8
20260830211604 81 143 0.0 3.5 0.00 0.00 0.00 86 1019.8
20260830210111 82 142 0.0 4.3 0.00 0.00 0.00 85 1019.7
20260830204600 82 117 0.9 4.3 0.00 0.00 0.00 84 1019.7
20260830203115 82 179 0.9 5.2 0.00 0.00 0.00 84 1020.0
20260830201601 82 139 0.9 4.3 0.00 0.00 0.00 84 1020.1
20260830200105 82 145 0.0 4.3 0.00 0.00 0.00 85 1020.3
20260830194559 82 98 0.9 4.3 0.00 0.00 0.00 84 1020.5
20260830193106 82 193 0.9 7.0 0.00 0.00 0.00 84 1020.6
20260830191601 81 120 0.9 2.6 0.00 0.00 0.00 85 1020.7
20260830184558 81 250 0.0 3.5 0.00 0.00 0.00 85 1021.1
20260830183111 81 113 1.7 4.3 0.00 0.00 0.00 85 1021.2
20260830181623 81 123 0.9 3.5 0.00 0.00 0.00 86 1021.5
20260830180111 81 119 0.9 4.3 0.00 0.00 0.00 85 1021.5
20260830174556 81 138 0.9 2.6 0.00 0.00 0.00 86 1021.7
20260830173138 81 120 0.9 4.3 0.00 0.00 0.00 86 1021.9
20260830171606 81 160 0.9 3.5 0.00 0.00 0.00 84 1021.9